Voltar ao catálogo

FENGYUN 1C DEB

AtivoSSO
NORAD 30916·DEBRIS·🇨🇳 China

Lançado May 10, 1999 de Taiyuan Satellite Launch Center

Loading…

Próximas Passagens (próximas 24 horas)

TLE

AtualizadoSource: Space-Track

Época: Sep 14, 2026, 16:21 UTC

1 30916U 99025AZE 26257.68192916  .00000965  00000-0  56501-3 0  9998
2 30916  98.9733 322.3640 0063952 204.7515 307.3910 14.09688156997308

Acompanhe FENGYUN 1C DEB em tempo real com AllMySat

Download on the App Store